DELTA 1 DEB, 29189

Orbit data source: Space-Track

DELTA 1 DEB, 29189 is space debris in LEO originally from a launch on Thu, 11 Jan 1968 UTC launched from the Air Force Western Test Range (AFWTR). Debris objects in space refer to the collection of defunct objects orbiting the Earth. Examples of debris include non-operational satellites, rocket bodies, and fragments generated from explosions, collisions, or faulty payload assembly.

Loading next visibility...
Identifier
29189, 1968-002N
Orbit
LEO
Country
Flag of USUS
Related business
Manufacturer
Unknown
Mission
Spacecraft
Bus & Motor
Unknown
Mass
Unknown
Launch date (UTC)
1968-01-11 (58 years ago)
Launch vehicle
Unknown
Launch site
Air Force Western Test Range (AFWTR)
Object type
Payload
Rocket body
Debris
Shape & HBR
Unknown shape, 0.1 m
Radar Cross Section
Small (<0.1 m²)

Expand to show TLE details & history
Last TLE update: 4 weeks ago

TLE from 4 weeks ago
0 DELTA 1 DEB
1 29189U 68002N   26101.73016506  .00000769  00000-0  19642-2 0  9999
2 29189 105.8358  94.9919 0241090 346.5757 189.3198 13.15055463520790
Epoch: 2026-04-11T17:31Z
TLE epoch observation values (Epoch: 2026-04-11T17:31:26.261Z)
Latitude
4.28775°
Longitude
173.39977°
Altitude
1,386.198 km
Speed
7.081 km/s
True Right ascension
18h 24m 49s
True Declination
4° 15' 51"
Sunlit
Object was in daylight at epoch
Visualization orbit readout
Latitude
Unknown
Longitude
Unknown
Altitude
Unknown
Speed
Unknown
Apparent Right ascension
Unknown
Apparent Declination
Unknown
Sunlit
N/A
Visualization observer readout
Local Sidereal Time
02:51:07
Azimuth
Unknown
Elevation
Unknown
Doppler factor
Unknown
Orbital elements
Apogee altitude
1,384.148 km
Perigee altitude
1,018.678 km
Semi-major axis
7,579.55 km
Eccentricity
0.02411
Inclination
105.8358°
RAAN
94.9919°
Arg. of periapsis
346.5757°
True anomaly
188.88534°
Mean anomaly
189.3198°
Eccentric anomaly
189.1013°
Mean motion
3.28911 °/min
Orbital period
109.45 mins
BSTAR
0.0019642
Loading maneuver chart data...
Computing Atmospheric mass density...
Loading historical data...
Loading historical data...
Loading historical data...
Loading historical data...
Loading historical data...
Loading historical data...
Loading historical data...

Documentation

Showing up to 5 results
|